This is the latest recevied weather packets stored in our database for station/object F8BMG-Wx. If no packets are shown the sender has not sent any weather packets the latest 10 day(s).
| Time | Temp. | Humidity | Pressure | Rain* | Wind** | Luminosity | Snow |
|---|---|---|---|---|---|---|---|
| 1777744457 | 16.11° C | 99% | 1016.1 hPa | 0.51 mm | - | - | - |
| 1777744153 | 16.67° C | 99% | 1016.1 hPa | 0.51 mm | - | - | - |
| 1777743850 | 16.67° C | 99% | 1016.2 hPa | 0.51 mm | - | - | - |
| 1777743546 | 16.67° C | 99% | 1016.1 hPa | 0.25 mm | - | - | - |
| 1777743250 | 17.22° C | 99% | 1016.3 hPa | 0.25 mm | - | - | - |
| 1777742939 | 17.78° C | 99% | 1016.4 hPa | 0 mm | - | - | - |
| 1777742635 | 17.78° C | 99% | 1015.9 hPa | 0 mm | - | - | - |
| 1777742331 | 18.33° C | 99% | 1015.3 hPa | 0 mm | - | - | - |
| 1777742028 | 18.33° C | 99% | 1014.9 hPa | 0 mm | - | - | - |
| 1777741724 | 18.33° C | 99% | 1014.8 hPa | 0 mm | - | - | - |
| 1777741430 | 18.33° C | 99% | 1014.8 hPa | 0 mm | - | - | - |
| 1777741117 | 18.33° C | 99% | 1014.7 hPa | 0 mm | - | - | - |
| 1777740814 | 18.33° C | 99% | 1014.6 hPa | 0 mm | - | - | - |
| 1777740510 | 18.33° C | 99% | 1014.7 hPa | 0 mm | - | - | - |
| 1777740207 | 18.33° C | 99% | 1014.8 hPa | 0 mm | - | - | - |
| 1777739903 | 18.89° C | 99% | 1014.9 hPa | 0 mm | - | - | - |
| 1777739607 | 18.89° C | 98% | 1014.8 hPa | 0 mm | - | - | - |
| 1777739295 | 18.89° C | 92% | 1014.8 hPa | 0 mm | - | - | - |
| 1777738992 | 18.89° C | 91% | 1014.8 hPa | 0 mm | - | - | - |
| 1777738689 | 19.44° C | 70% | 1014.7 hPa | 0 mm | - | - | - |
| 1777738385 | 19.44° C | 54% | 1014.7 hPa | 0 mm | - | - | - |
| 1777738081 | 20° C | 69% | 1014.7 hPa | 0 mm | - | - | - |
| 1777737784 | 20° C | 58% | 1014.6 hPa | 0 mm | - | - | - |
| 1777737472 | 20° C | 36% | 1014.6 hPa | 0 mm | - | - | - |
| 1777737168 | 20° C | 38% | 1014.5 hPa | 0 mm | - | - | - |
* Rain latest hour (hover to see other rain measurements)
** Current wind speed in m/s (hover to see current wind gust speed)